Location: Sungai Laei
(2.6000°N, 113.7167°E)
Time: 07:21:09
(UTC+00:00)

FUSE - Visible Passes

Search period start: 06 October 2022 00:00
Search period end: 16 October 2022 00:00
Orbit: 741 x 756 km, 25.0° (Epoch: 05 October)

Date Brightness Start Highest point End Pass type
(mag) Time Alt. Az. Time Alt. Az. Time Alt. Az.
12 Oct 6.7 12:38:06 10° SSW 12:38:10 10° SSW 12:38:10 10° SSW visible
13 Oct 5.9 11:51:45 10° SSW 11:54:18 16° SSE 11:54:18 16° SSE visible
14 Oct 6.0 11:05:36 10° S 11:08:07 13° SSE 11:10:27 10° SE visible
14 Oct 6.6 12:49:31 10° SW 12:50:11 13° SW 12:50:11 13° SW visible
14 Oct 6.3 21:48:07 10° N 21:50:30 13° NNE 21:52:53 10° NE visible
15 Oct 5.1 12:02:50 10° SW 12:06:22 32° S 12:06:22 32° S visible
15 Oct 6.4 21:02:12 10° N 21:03:26 11° NNE 21:04:41 10° NNE visible
